When you browse on this site, cookies collect data to enhance your experience and personalize the content and advertising you see.
Visit our Privacy Policy to learn more. By continuing to use the site, you agree to this use of cookies and data.

Météo par heure à Tuokou

Ce jour, 6 Juillet, Lundi

Heure Température Précipitation Vent Pression Humidité
00:00 +28°C° 0 mm 3 m/s 729 mmHg 86%
01:00 +28°C° 0 mm 3 m/s 729 mmHg 87%
02:00 +28°C° 0 mm 3 m/s 729 mmHg 87%
03:00 +27°C° 0 mm 3 m/s 729 mmHg 88%
04:00 +27°C° 0 mm 2 m/s 729 mmHg 88%
05:00 +28°C° 0.1 mm 3 m/s 729 mmHg 87%
06:00 +28°C° 0.1 mm 3 m/s 729 mmHg 86%
07:00 +29°C° 0 mm 4 m/s 729 mmHg 87%
08:00 +30°C° 0 mm 4 m/s 730 mmHg 81%
09:00 +32°C° 0 mm 5 m/s 730 mmHg 74%
10:00 +34°C° 0 mm 5 m/s 730 mmHg 68%
11:00 +34°C° 0 mm 5 m/s 729 mmHg 65%
12:00 +35°C° 0 mm 5 m/s 729 mmHg 62%
13:00 +36°C° 0 mm 5 m/s 729 mmHg 60%
14:00 +36°C° 0 mm 5 m/s 729 mmHg 61%
15:00 +35°C° 0 mm 4 m/s 729 mmHg 63%
16:00 +35°C° 0 mm 4 m/s 728 mmHg 65%
17:00 +34°C° 0 mm 4 m/s 729 mmHg 69%
18:00 +33°C° 0 mm 4 m/s 729 mmHg 74%
19:00 +30°C° 0 mm 4 m/s 730 mmHg 78%
20:00 +30°C° 0 mm 3 m/s 730 mmHg 79%
21:00 +30°C° 0 mm 3 m/s 731 mmHg 80%
22:00 +29°C° 0 mm 3 m/s 731 mmHg 81%
23:00 +29°C° 0.1 mm 3 m/s 731 mmHg 83%

Demain, 7 Juillet, Mardi

Heure Température Précipitation Vent Pression Humidité
00:00 +29°C° 0.1 mm 3 m/s 731 mmHg 84%
01:00 +28°C° 0.1 mm 3 m/s 731 mmHg 86%
02:00 +28°C° 0.5 mm 3 m/s 730 mmHg 86%
03:00 +28°C° 0.5 mm 3 m/s 730 mmHg 86%
04:00 +28°C° 0.5 mm 3 m/s 730 mmHg 86%
05:00 +28°C° 0.1 mm 3 m/s 731 mmHg 86%
06:00 +28°C° 0.1 mm 3 m/s 731 mmHg 86%
07:00 +28°C° 0.1 mm 3 m/s 731 mmHg 86%
08:00 +28°C° 0.3 mm 3 m/s 731 mmHg 85%
09:00 +28°C° 0.3 mm 3 m/s 732 mmHg 85%
10:00 +28°C° 0.3 mm 3 m/s 732 mmHg 85%
11:00 +29°C° 0 mm 3 m/s 732 mmHg 84%
12:00 +30°C° 0 mm 3 m/s 731 mmHg 82%
13:00 +30°C° 0 mm 2 m/s 731 mmHg 81%
14:00 +30°C° 0 mm 2 m/s 731 mmHg 81%
15:00 +31°C° 0 mm 2 m/s 731 mmHg 80%
16:00 +31°C° 0 mm 2 m/s 730 mmHg 80%
17:00 +30°C° 0.1 mm 2 m/s 730 mmHg 82%
18:00 +30°C° 0.1 mm 2 m/s 731 mmHg 84%
19:00 +29°C° 0.1 mm 2 m/s 731 mmHg 85%
20:00 +29°C° 0.6 mm 2 m/s 731 mmHg 88%
21:00 +28°C° 0.6 mm 2 m/s 732 mmHg 90%
22:00 +28°C° 0.6 mm 2 m/s 732 mmHg 92%
23:00 +28°C° 1.3 mm 2 m/s 731 mmHg 94%

Après-demain, 8 Juillet, Mercredi

Heure Température Précipitation Vent Pression Humidité
00:00 +27°C° 1.3 mm 2 m/s 731 mmHg 95%
01:00 +27°C° 1.3 mm 2 m/s 730 mmHg 96%
02:00 +27°C° 0.9 mm 2 m/s 730 mmHg 96%
03:00 +27°C° 0.9 mm 2 m/s 730 mmHg 96%
04:00 +27°C° 0.9 mm 2 m/s 730 mmHg 95%
05:00 +27°C° 0.1 mm 2 m/s 730 mmHg 94%
06:00 +27°C° 0.1 mm 2 m/s 730 mmHg 93%
07:00 +27°C° 0.1 mm 2 m/s 730 mmHg 93%
08:00 +29°C° 0 mm 3 m/s 730 mmHg 86%
09:00 +30°C° 0 mm 3 m/s 731 mmHg 80%
10:00 +33°C° 0 mm 3 m/s 731 mmHg 74%
11:00 +31°C° 0.4 mm 3 m/s 730 mmHg 78%
12:00 +31°C° 0.4 mm 3 m/s 730 mmHg 83%
13:00 +30°C° 0.4 mm 2 m/s 729 mmHg 87%
14:00 +30°C° 0.5 mm 2 m/s 729 mmHg 88%
15:00 +29°C° 0.5 mm 2 m/s 729 mmHg 89%
16:00 +29°C° 0.5 mm 2 m/s 728 mmHg 90%
17:00 +29°C° 0.6 mm 2 m/s 729 mmHg 90%
18:00 +28°C° 0.6 mm 2 m/s 729 mmHg 91%
19:00 +28°C° 0.6 mm 2 m/s 729 mmHg 91%
20:00 +28°C° 1.7 mm 2 m/s 729 mmHg 92%
21:00 +28°C° 1.7 mm 2 m/s 729 mmHg 93%
22:00 +27°C° 1.7 mm 2 m/s 729 mmHg 94%
23:00 +27°C° 1.8 mm 2 m/s 729 mmHg 95%

9 Juillet, Jeudi

Heure Température Précipitation Vent Pression Humidité
00:00 +27°C° 1.8 mm 1 m/s 729 mmHg 96%
01:00 +25°C° 1.8 mm 0 m/s 729 mmHg 97%
02:00 +27°C° 2.4 mm 1 m/s 728 mmHg 97%
03:00 +27°C° 2.4 mm 1 m/s 728 mmHg 98%
04:00 +27°C° 2.4 mm 1 m/s 728 mmHg 98%
05:00 +27°C° 2.1 mm 1 m/s 728 mmHg 98%
06:00 +27°C° 2.1 mm 1 m/s 728 mmHg 98%
07:00 +27°C° 2.1 mm 1 m/s 729 mmHg 98%
08:00 +27°C° 0.7 mm 1 m/s 729 mmHg 98%
09:00 +27°C° 0.7 mm 1 m/s 729 mmHg 97%
10:00 +28°C° 0.7 mm 1 m/s 729 mmHg 96%
11:00 +29°C° 0.1 mm 1 m/s 729 mmHg 90%
12:00 +30°C° 0.1 mm 2 m/s 728 mmHg 83%
13:00 +33°C° 0.1 mm 3 m/s 728 mmHg 77%
14:00 +32°C° 0.3 mm 2 m/s 727 mmHg 78%
15:00 +32°C° 0.3 mm 2 m/s 727 mmHg 80%
16:00 +32°C° 0.3 mm 1 m/s 727 mmHg 81%
17:00 +31°C° 2 mm 2 m/s 727 mmHg 85%
18:00 +29°C° 2 mm 2 m/s 727 mmHg 89%
19:00 +28°C° 2 mm 2 m/s 727 mmHg 92%
20:00 +28°C° 1.3 mm 2 m/s 727 mmHg 93%
21:00 +28°C° 1.3 mm 3 m/s 728 mmHg 94%
22:00 +27°C° 1.3 mm 3 m/s 728 mmHg 95%
23:00 +27°C° 0.3 mm 3 m/s 728 mmHg 94%

10 Juillet, Vendredi

Heure Température Précipitation Vent Pression Humidité
00:00 +27°C° 0.3 mm 3 m/s 728 mmHg 94%
01:00 +27°C° 0.3 mm 2 m/s 727 mmHg 94%
02:00 +27°C° 0.2 mm 2 m/s 727 mmHg 94%
03:00 +27°C° 0.2 mm 2 m/s 727 mmHg 95%
04:00 +27°C° 0.2 mm 2 m/s 727 mmHg 95%
05:00 +27°C° 0.2 mm 2 m/s 727 mmHg 94%
06:00 +27°C° 0.2 mm 2 m/s 728 mmHg 93%
07:00 +28°C° 0.2 mm 2 m/s 728 mmHg 92%
08:00 +29°C° 0.3 mm 3 m/s 728 mmHg 85%
09:00 +32°C° 0.3 mm 4 m/s 728 mmHg 79%
10:00 +33°C° 0.3 mm 4 m/s 728 mmHg 73%
11:00 +33°C° 0.6 mm 5 m/s 728 mmHg 75%
12:00 +33°C° 0.6 mm 5 m/s 728 mmHg 77%
13:00 +33°C° 0.6 mm 5 m/s 727 mmHg 80%
14:00 +33°C° 0.6 mm 5 m/s 727 mmHg 81%
15:00 +33°C° 0.6 mm 5 m/s 726 mmHg 82%
16:00 +32°C° 0.6 mm 4 m/s 726 mmHg 83%
17:00 +30°C° 0.2 mm 4 m/s 726 mmHg 85%
18:00 +29°C° 0.2 mm 4 m/s 726 mmHg 86%
19:00 +28°C° 0.2 mm 4 m/s 726 mmHg 88%
20:00 +28°C° 0 mm 3 m/s 727 mmHg 88%
21:00 +28°C° 0 mm 3 m/s 727 mmHg 88%
22:00 +28°C° 0 mm 3 m/s 728 mmHg 88%
23:00 +28°C° 0.1 mm 3 m/s 727 mmHg 88%

11 Juillet, Samedi

Heure Température Précipitation Vent Pression Humidité
00:00 +28°C° 0.1 mm 3 m/s 727 mmHg 88%
01:00 +28°C° 0.1 mm 3 m/s 726 mmHg 88%
02:00 +28°C° 0 mm 3 m/s 726 mmHg 87%
03:00 +28°C° 0 mm 3 m/s 726 mmHg 86%
04:00 +27°C° 0 mm 3 m/s 726 mmHg 86%
05:00 +28°C° 0 mm 3 m/s 726 mmHg 84%
06:00 +29°C° 0 mm 3 m/s 726 mmHg 82%
07:00 +29°C° 0 mm 3 m/s 727 mmHg 81%
08:00 +32°C° 0 mm 4 m/s 727 mmHg 74%
09:00 +33°C° 0 mm 5 m/s 727 mmHg 67%
10:00 +35°C° 0 mm 6 m/s 727 mmHg 61%
11:00 +35°C° 0 mm 6 m/s 727 mmHg 59%
12:00 +35°C° 0 mm 6 m/s 726 mmHg 58%
13:00 +36°C° 0 mm 7 m/s 726 mmHg 57%
14:00 +35°C° 0.1 mm 7 m/s 726 mmHg 60%
15:00 +35°C° 0.1 mm 6 m/s 725 mmHg 62%
16:00 +34°C° 0.1 mm 6 m/s 725 mmHg 65%
17:00 +33°C° 0 mm 6 m/s 725 mmHg 69%
18:00 +32°C° 0 mm 5 m/s 726 mmHg 72%
19:00 +30°C° 0 mm 5 m/s 726 mmHg 76%
20:00 +29°C° 0 mm 5 m/s 727 mmHg 76%
21:00 +29°C° 0 mm 5 m/s 727 mmHg 76%
22:00 +29°C° 0 mm 5 m/s 728 mmHg 76%
23:00 +29°C° 0 mm 4 m/s 727 mmHg 77%
Voir plus